This is the latest recevied weather packets stored in our database for station/object NK2J. If no packets are shown the sender has not sent any weather packets the latest 10 day(s).
| Time | Temp. | Humidity | Pressure | Rain* | Wind** | Luminosity | Snow |
|---|---|---|---|---|---|---|---|
| 1777757234 | 32.22° C | 18% | 1013.5 hPa | 0 mm | - | 620 W/m² | - |
| 1777756932 | 32.22° C | 17% | 1013.4 hPa | 0 mm | - | 639 W/m² | - |
| 1777756628 | 32.22° C | 18% | 1013.6 hPa | 0 mm | - | 679 W/m² | - |
| 1777756325 | 32.22° C | 18% | 1013.6 hPa | 0 mm | - | 681 W/m² | - |
| 1777756022 | 32.78° C | 16% | 1013.6 hPa | 0 mm | - | 679 W/m² | - |
| 1777755719 | 32.78° C | 17% | 1013.6 hPa | 0 mm | - | 693 W/m² | - |
| 1777755416 | 32.22° C | 17% | 1013.7 hPa | 0 mm | - | 690 W/m² | - |
| 1777755112 | 32.22° C | 18% | 1013.9 hPa | 0 mm | - | 718 W/m² | - |
| 1777754809 | 31.67° C | 18% | 1014 hPa | 0 mm | - | 735 W/m² | - |
| 1777754507 | 31.67° C | 17% | 1014 hPa | 0 mm | - | 749 W/m² | - |
| 1777754204 | 32.22° C | 17% | 1014 hPa | 0 mm | - | 762 W/m² | - |
| 1777753902 | 32.22° C | 18% | 1014.2 hPa | 0 mm | - | 765 W/m² | - |
| 1777753596 | 32.78° C | 17% | 1014.4 hPa | 0 mm | - | 761 W/m² | - |
| 1777753295 | 32.22° C | 19% | 1014.4 hPa | 0 mm | - | 755 W/m² | - |
| 1777752991 | 31.67° C | 19% | 1014.5 hPa | 0 mm | - | 757 W/m² | - |
| 1777752688 | 31.67° C | 21% | 1014.4 hPa | 0 mm | - | 757 W/m² | - |
| 1777752383 | 31.67° C | 20% | 1014.4 hPa | 0 mm | - | 760 W/m² | - |
| 1777752081 | 31.11° C | 20% | 1014.7 hPa | 0 mm | - | 763 W/m² | - |
| 1777751780 | 31.67° C | 20% | 1014.5 hPa | 0 mm | - | 113 W/m² | - |
| 1777751475 | 32.78° C | 20% | 1014.7 hPa | 0 mm | - | 767 W/m² | - |
| 1777751172 | 32.22° C | 19% | 1014.8 hPa | 0 mm | - | 766 W/m² | - |
| 1777750868 | 32.22° C | 20% | 1015.3 hPa | 0 mm | - | 776 W/m² | - |
| 1777750565 | 32.22° C | 20% | 1014.8 hPa | 0 mm | - | 780 W/m² | - |
| 1777750262 | 31.11° C | 21% | 1014.8 hPa | 0 mm | - | 769 W/m² | - |
| 1777749952 | 31.11° C | 23% | 1014.9 hPa | 0 mm | - | 770 W/m² | - |
* Rain latest hour (hover to see other rain measurements)
** Current wind speed in m/s (hover to see current wind gust speed)